Date String (YYYY-MM-DD hh:mm:ss) UTC,Instrument flags,absolute air pressure of the measurement (hPa),sample flow rate (lpm),inlet stack bypass flow (lpm),air temperature of the measurement (°C),ambient temperature measured by the external sensor (°C),aerosol sample conditioner tube jacket temperature (°C),OPC LED temperature (°C),internal box temperature (°C),relative humidity of the measurement (%),span deviation,mass concentration of particles derived from Lorenz-Mie calculation of OPC scattering (μg/m³),mass concentration of particles derived from Lorenz-Mie calculation of OPC scattering (μg/m³),mass concentration of particles derived from Lorenz-Mie calculation of OPC scattering (μg/m³)
DateTimeUTC,F1_M11,P_M11,Q1_M11,Q2_M11,T1_M11,T2_M11,T3_M11,T4_M11,T5_M11,U1_M11,ZSPAN_M11,X0_M11,X2_M11,X1_M11
2024-05-06 00:00:00,SystemResetWarning,0814.2,5.00,000.00,024.1,023.1,000.0,032.4,026.0,025.5,0000.0,0017.70,0005.16,0003.58
2024-05-06 00:01:00,SystemResetWarning,0814.1,5.00,000.00,024.2,023.4,000.0,032.4,026.1,025.2,0000.0,0016.58,0005.11,0003.59
2024-05-06 00:02:00,SystemResetWarning,0814.1,5.00,000.00,024.3,023.7,000.0,032.4,026.3,025.3,0000.0,0016.37,0005.13,0003.59
2024-05-06 00:03:00,SystemResetWarning,0814.1,5.00,000.00,024.4,023.9,000.0,032.4,026.4,025.3,0000.0,0016.86,0005.21,0003.58
2024-05-06 00:04:00,SystemResetWarning,0814.1,5.00,000.00,024.5,024.1,000.0,032.5,026.5,025.2,0000.0,0015.21,0005.19,0003.58
2024-05-06 00:05:00,SystemResetWarning,0814.1,4.99,000.00,024.6,024.2,000.0,032.5,026.6,025.2,0000.0,0014.19,0005.15,0003.58
2024-05-06 00:06:00,SystemResetWarning,0813.9,4.98,000.00,024.6,023.0,000.0,032.6,025.9,025.3,0000.0,0014.39,0005.14,0003.57
2024-05-06 00:07:00,SystemResetWarning,0813.9,5.01,000.00,024.2,021.2,000.0,032.7,024.9,025.4,0000.0,0014.27,0005.15,0003.56
2024-05-06 00:08:00,SystemResetWarning,0813.9,5.01,000.00,023.9,021.3,000.0,032.6,024.8,025.3,0000.0,0015.66,0005.20,0003.56
2024-05-06 00:09:00,SystemResetWarning,0813.9,5.01,000.00,023.9,021.7,000.0,032.5,025.1,026.1,0000.0,0016.21,0005.20,0003.55
2024-05-06 00:10:00,SystemResetWarning,0814.0,4.99,000.00,023.9,022.2,000.0,032.4,025.4,026.5,0000.0,0017.01,0005.20,0003.55
2024-05-06 00:11:00,SystemResetWarning,0813.9,5.00,000.00,024.0,022.6,000.0,032.4,025.6,025.8,0000.0,0019.11,0005.18,0003.55
2024-05-06 00:12:00,SystemResetWarning,0813.9,5.01,000.00,024.1,023.0,000.0,032.3,025.8,024.6,0000.0,0019.20,0005.16,0003.54
2024-05-06 00:13:00,SystemResetWarning,0813.9,4.99,000.00,024.2,023.3,000.0,032.3,026.1,024.9,0000.0,0019.78,0005.11,0003.53
2024-05-06 00:14:00,SystemResetWarning,0813.9,5.00,000.00,024.3,023.5,000.0,032.3,026.2,024.8,0000.0,0020.47,0005.07,0003.54
2024-05-06 00:15:00,SystemResetWarning,0813.9,5.00,000.00,024.4,023.8,000.0,032.4,026.3,024.7,0000.0,0021.46,0005.04,0003.54
2024-05-06 00:16:00,SystemResetWarning,0813.9,5.01,000.00,024.5,024.0,000.0,032.4,026.5,024.7,0000.0,0022.67,0005.02,0003.53
2024-05-06 00:17:00,SystemResetWarning,0813.9,5.01,000.00,024.6,024.2,000.0,032.4,026.6,024.2,0000.0,0022.84,0005.00,0003.53
2024-05-06 00:18:00,SystemResetWarning,0813.9,4.99,000.00,024.7,024.2,000.0,032.5,026.6,024.2,0000.0,0023.17,0004.98,0003.53
2024-05-06 00:19:00,SystemResetWarning,0813.9,4.99,000.00,024.5,022.6,000.0,032.6,025.7,024.9,0000.0,0021.87,0004.93,0003.52
2024-05-06 00:20:00,SystemResetWarning,0813.9,5.01,000.00,024.1,021.1,000.0,032.6,024.9,025.6,0000.0,0021.66,0004.94,0003.53
2024-05-06 00:21:00,SystemResetWarning,0813.8,5.01,000.00,023.9,021.3,000.0,032.6,024.9,025.6,0000.0,0021.80,0004.93,0003.52
2024-05-06 00:22:00,SystemResetWarning,0813.8,5.00,000.00,023.9,021.8,000.0,032.5,025.2,025.6,0000.0,0019.67,0004.92,0003.51
2024-05-06 00:23:00,SystemResetWarning,0813.8,4.99,000.00,024.0,022.2,000.0,032.4,025.5,025.7,0000.0,0019.81,0004.97,0003.53
2024-05-06 00:24:00,SystemResetWarning,0813.7,5.00,000.00,024.0,022.6,000.0,032.3,025.6,025.7,0000.0,0019.14,0004.99,0003.54
2024-05-06 00:25:00,SystemResetWarning,0813.7,5.01,000.00,024.1,023.0,000.0,032.3,025.9,025.0,0000.0,0018.74,0005.00,0003.53
2024-05-06 00:26:00,SystemResetWarning,0813.7,5.00,000.00,024.2,023.3,000.0,032.3,026.1,025.2,0000.0,0019.18,0005.00,0003.52
2024-05-06 00:27:00,SystemResetWarning,0813.7,5.00,000.00,024.3,023.6,000.0,032.3,026.2,025.5,0000.0,0020.38,0005.01,0003.53
2024-05-06 00:28:00,SystemResetWarning,0813.7,5.00,000.00,024.4,023.8,000.0,032.4,026.4,025.3,0000.0,0020.74,0005.08,0003.55
2024-05-06 00:29:00,SystemResetWarning,0813.7,5.00,000.00,024.5,024.0,000.0,032.4,026.5,024.9,0000.0,0020.74,0005.16,0003.57
2024-05-06 00:30:00,SystemResetWarning,0813.7,5.00,000.00,024.6,024.2,000.0,032.5,026.6,024.7,0000.0,0021.12,0005.22,0003.59
2024-05-06 00:31:00,SystemResetWarning,0813.7,4.99,000.00,024.7,024.0,000.0,032.5,026.5,025.3,0000.0,0021.87,0005.22,0003.60
2024-05-06 00:32:00,SystemResetWarning,0813.5,5.00,000.00,024.4,022.1,000.0,032.6,025.4,025.0,0000.0,0021.88,0005.27,0003.62
2024-05-06 00:33:00,SystemResetWarning,0813.5,5.00,000.00,024.0,020.9,000.0,032.7,024.8,026.2,0000.0,0023.06,0005.29,0003.62
2024-05-06 00:34:00,SystemResetWarning,0813.5,5.01,000.00,023.9,021.3,000.0,032.6,024.9,026.4,0000.0,0024.75,0005.28,0003.62
2024-05-06 00:35:00,SystemResetWarning,0813.6,5.00,000.00,023.9,021.7,000.0,032.5,025.1,026.7,0000.0,0024.86,0005.32,0003.63
2024-05-06 00:36:00,SystemResetWarning,0813.6,4.99,000.00,023.9,022.2,000.0,032.4,025.4,027.0,0000.0,0024.48,0005.25,0003.63
2024-05-06 00:37:00,SystemResetWarning,0813.6,5.01,000.00,024.0,022.6,000.0,032.3,025.7,027.2,0000.0,0023.93,0005.29,0003.65
2024-05-06 00:38:00,SystemResetWarning,0813.6,5.01,000.00,024.1,023.0,000.0,032.3,025.9,027.0,0000.0,0022.79,0005.33,0003.65
2024-05-06 00:39:00,SystemResetWarning,0813.6,5.00,000.00,024.2,023.3,000.0,032.3,026.1,027.1,0000.0,0023.48,0005.27,0003.64
2024-05-06 00:40:00,SystemResetWarning,0813.6,5.00,000.00,024.3,023.5,000.0,032.3,026.2,026.9,0000.0,0023.96,0005.20,0003.62
2024-05-06 00:41:00,SystemResetWarning,0813.6,4.99,000.00,024.4,023.8,000.0,032.4,026.4,025.5,0000.0,0023.84,0005.12,0003.60
2024-05-06 00:42:00,SystemResetWarning,0813.6,5.00,000.00,024.5,024.0,000.0,032.4,026.5,025.2,0000.0,0023.59,0005.06,0003.58
2024-05-06 00:43:00,SystemResetWarning,0813.6,5.00,000.00,024.6,024.1,000.0,032.4,026.6,025.6,0000.0,0023.69,0005.07,0003.57
2024-05-06 00:44:00,SystemResetWarning,0813.5,5.00,000.00,024.7,024.3,000.0,032.5,026.7,025.6,0000.0,0023.88,0005.14,0003.61
2024-05-06 00:45:00,SystemResetWarning,0813.5,4.99,000.00,024.8,024.4,000.0,032.6,026.7,025.8,0000.0,0021.84,0005.30,0003.73
2024-05-06 00:46:00,SystemResetWarning,0813.5,4.99,000.00,024.7,023.1,000.0,032.7,026.0,024.9,0000.0,0022.90,0005.43,0003.88
2024-05-06 00:47:00,SystemResetWarning,0813.4,5.00,000.00,024.2,021.2,000.0,032.7,024.9,024.9,0000.0,0022.26,0005.53,0003.96
2024-05-06 00:48:00,SystemResetWarning,0813.5,5.01,000.00,024.0,021.2,000.0,032.7,024.8,025.9,0000.0,0021.73,0005.54,0004.00
2024-05-06 00:49:00,SystemResetWarning,0813.4,5.01,000.00,023.9,021.6,000.0,032.6,025.0,025.8,0000.0,0021.02,0005.60,0004.05
2024-05-06 00:50:00,SystemResetWarning,0813.5,5.00,000.00,024.0,022.0,000.0,032.5,025.4,026.0,0000.0,0021.28,0005.68,0004.08
2024-05-06 00:51:00,SystemResetWarning,0813.5,5.00,000.00,024.0,022.5,000.0,032.4,025.6,025.7,0000.0,0020.98,0005.69,0004.10
2024-05-06 00:52:00,SystemResetWarning,0813.5,5.00,000.00,024.1,022.8,000.0,032.4,025.9,025.6,0000.0,0021.14,0005.69,0004.09
2024-05-06 00:53:00,SystemResetWarning,0813.5,5.00,000.00,024.2,023.2,000.0,032.4,026.1,025.0,0000.0,0020.62,0005.74,0004.10
2024-05-06 00:54:00,SystemResetWarning,0813.5,5.00,000.00,024.3,023.4,000.0,032.4,026.2,024.5,0000.0,0020.90,0005.73,0004.09
2024-05-06 00:55:00,SystemResetWarning,0813.5,5.00,000.00,024.4,023.7,000.0,032.4,026.3,024.4,0000.0,0020.59,0005.61,0004.05
2024-05-06 00:56:00,SystemResetWarning,0813.5,5.00,000.00,024.5,023.9,000.0,032.4,026.5,024.4,0000.0,0020.22,0005.43,0003.89
2024-05-06 00:57:00,SystemResetWarning,0813.5,4.99,000.00,024.6,024.0,000.0,032.5,026.6,023.9,0000.0,0019.91,0005.28,0003.74
2024-05-06 00:58:00,SystemResetWarning,0813.5,5.00,000.00,024.7,024.2,000.0,032.5,026.6,023.7,0000.0,0019.75,0005.19,0003.64
2024-05-06 00:59:00,SystemResetWarning,0813.5,4.97,000.00,024.7,023.5,000.0,032.6,026.2,023.6,0000.0,0019.83,0005.14,0003.58
